Weather Roundup
Issued by NWS

Home | Current Version | Previous Version | Graphics & Text | Print | Product List | Glossary Off
Versions: 1 2 3 4 5 6 7 8 9 10 11 12 13 14 15 16 17 18 19 20 21 22 23 24 25 26 27 28 29 30 31 32 33 34 35 36 37 38 39 40 41 42 43 44 45 46 47 48 49 50

000
NZUS93 KARX 281710
HRRWXR

CURRENT HOURLY OBSERVATIONS ACROSS
MUCH OF THE UPPER MISSISSIPPI VALLEY
NATIONAL WEATHER SERVICE LA CROSSE WI
1100 AM CST WED JAN 28 2015


...SOUTHEAST MINNESOTA...


CITY           SKY/WX    TMP DP  RH WIND       PRES   REMARKS
ROCHESTER      FOG       26  25  96 SE23      29.95F VSB 1/2 WCI  11
ROCHESTER/MAYO CLOUDY    26  25  97 SE14G21   29.97F WCI  14
WINONA         CLOUDY    30  27  86 S10       30.06F FOG     WCI  21
AUSTIN         FOG       28  27  93 SE10G23   29.93F VSB 3/4 WCI  19
ALBERT LEA     FOG       28  28 100 SE22      29.90F VSB 1/2 WCI  15
DODGE CENTER   FOG       27  27 100 SE16      29.93F VSB 3/4 WCI  14
PRESTON        FOG       25  24  96 SE13      29.99F VSB 1/2 WCI  14
OWATONNA       CLOUDY    28  27  93 SE17G25   29.93S FOG     WCI  16
FARIBAULT      CLOUDY    28  27  93 SE15      29.94F FOG     WCI  17
$$

...ELSEWHERE IN MINNESOTA...


CITY           SKY/WX    TMP DP  RH WIND       PRES   REMARKS
MINNEAPOLIS    CLOUDY    28  24  85 SE14      29.96F FOG     WCI  17
INTNL FALLS    CLOUDY    28  24  85 SE8       29.86F WCI  20
DULUTH         CLOUDY    24  21  88 SE10      29.92F FOG     WCI  14
RED WING       CLOUDY    28  25  86 SE14      29.99F FOG     WCI  17
REDWOOD FALLS  CLOUDY    33  30  88 SE18      29.85S FOG     WCI  22
MANKATO        CLOUDY    30  27  86 SE22      29.90F WCI  17
WORTHINGTON    CLOUDY    30  28  93 S17       29.81R WCI  18
FAIRMONT       CLOUDY    30  27  86 S22       29.84F WCI  17
$$

...SOUTHWEST WISCONSIN...


CITY           SKY/WX    TMP DP  RH WIND       PRES   REMARKS
LA CROSSE      CLOUDY    30  24  78 SE13      30.08F HAZE    WCI  20
PRAIRIE DU CHI CLOUDY    31  24  74 SE12G22   30.08F WCI  22
BOSCOBEL       CLOUDY    31  24  75 S5        30.12F HAZE    WCI  26
LONE ROCK      CLOUDY    29  24  82 S9        30.14S HAZE    WCI  20
PLATTEVILLE    PTSUNNY   30  24  78 SE18G24   30.10F WCI  18
FORT MC COY    CLOUDY    28  24  85 SE10      30.10F FOG     WCI  18
CAMP DOUGLAS   CLOUDY    27  27 100 SE10      30.10F FOG     WCI  17
VIROQUA        CLOUDY    26  26 100 SE12G20   30.06F WCI  16
WIS DELLS      CLOUDY    26  23  89 S14       30.12F FOG     WCI  14
$$

...ELSEWHERE IN WISCONSIN...


CITY           SKY/WX    TMP DP  RH WIND       PRES   REMARKS
MILWAUKEE      PTSUNNY   31  20  63 S13       30.22F WCI  21
MADISON        PTSUNNY   28  21  75 S15       30.14F WCI  16
GREEN BAY      CLOUDY    28  21  75 S10       30.18F WCI  19
EAU CLAIRE     CLOUDY    27  22  81 SE15      30.03F HAZE    WCI  15
BLACK RVR FLS  CLOUDY    28  23  80 SE8       30.08F HAZE    WCI  20
MEDFORD        CLOUDY    23  21  93 SE10      30.04F FOG     WCI  12
WAUSAU         CLOUDY    25  20  81 S17       30.08F WCI  12
WIS RAPIDS     CLOUDY    25  20  81 S12       30.13S WCI  14
MARSHFIELD     CLOUDY    24  21  88 S16       30.07F FOG     WCI  11
RICE LAKE      CLOUDY    26  23  88 SE16      30.01F FOG     WCI  14
$$

...NORTHEAST IOWA...


CITY           SKY/WX    TMP DP  RH WIND       PRES   REMARKS
DECORAH        CLOUDY    28  28 100 SE10G21   30.01F FOG     WCI  19
MASON CITY     CLOUDY    30  29  96 SE23G30   29.93F FOG     WCI  17
CHARLES CITY   FOG       30  30 100 SE24G30   29.96F VSB 1/4 WCI  16
OELWEIN        PTSUNNY   32  28  86 SE21      30.00F WCI  20
$$

...ELSEWHERE IN IOWA...


CITY           SKY/WX    TMP DP  RH WIND       PRES   REMARKS
DES MOINES     CLOUDY    37  29  72 SE21      29.91F WCI  26
IOWA CITY      SUNNY     32  26  78 SE15      30.06F WCI  22
FORT DODGE     CLOUDY    34  28  80 SE10      29.89S WCI  26
$$

...NORTHERN ILLINOIS...


CITY           SKY/WX    TMP DP  RH WIND       PRES   REMARKS
CHICAGO-OHARE  PTSUNNY   30  14  51 S14       30.23F WCI  19
CHICAGO-MIDWAY PTSUNNY   31  16  54 S13       30.24F WCI  21
MOLINE         MOSUNNY   30  22  72 SE14      30.12F WCI  19
ROCKFORD       CLOUDY    30  20  66 S20       30.20F WCI  17
PEORIA         SUNNY     34  24  67 S17G24    30.19F WCI  23
$$

NOTE: "FAIR" INDICATES FEW OR NO CLOUDS BELOW 12,000 FEET WITH NO
SIGNIFICANT WEATHER AND/OR OBSTRUCTIONS TO VISIBILITY. WIND
SPEEDS ARE IN MILES-PER-HOUR.



USA.gov is the U.S. government's official web portal to all federal, state and local government web resources and services.